Wind_Speed
21 21 19 16 10 8 9 11 11 9 8 8 9 11 10 7 4 2 2 4 5 6 7 12 12 11 9 7 8 8 7 7 6 5 5 6 8 10 10 10 9 10 11 13 14 14 15 17 17 16 17 18 21 22 20 20 22 25 26 25 25 25 26 27 27 25 24 24 24 25 25 24 23 23 23 23 22 22 21 19 18 17 17 16 14 13 12
16 17 17 16 15 12 10 11 12 10 6 6 8 9 9 6 2 3 4 6 8 8 10 11 11 11 9 8 9 9 9 9 9 8 7 6 7 7 7 9 10 10 11 10 11 12 13 15 17 18 18 20 23 24 23 22 25 29 27 25 25 26 27 27 24 23 23 23 23 25 25 24 24 24 24 24 24 23 22 21 20 19 19 18 16 14 13
8 10 12 12 13 13 11 9 10 9 7 6 8 9 8 5 2 3 3 4 5 6 7 8 8 9 8 9 10 9 9 9 9 9 8 8 8 7 7 8 7 7 8 6 6 7 8 9 12 15 19 22 24 25 23 22 25 29 27 25 26 26 25 26 25 24 24 24 23 23 23 24 25 24 24 24 25 24 22 22 22 22 21 19 18 16 14
7 7 9 10 11 13 11 8 5 5 6 6 6 8 8 7 5 2 2 3 4 4 5 6 7 8 8 9 9 7 8 8 7 8 8 8 7 6 6 5 3 2 3 4 4 5 5 6 8 12 18 23 23 23 22 22 23 24 24 24 25 25 24 25 25 24 24 23 21 20 21 22 23 23 23 24 25 24 23 22 22 22 21 19 17 16 15
9 10 10 8 9 9 7 5 3 2 3 2 2 5 8 9 9 5 4 7 9 8 6 6 6 6 7 9 9 6 6 6 7 7 5 4 4 3 2 2 1 1 2 2 3 3 4 5 6 9 16 21 22 21 21 21 21 21 21 23 24 23 24 24 23 21 21 20 20 20 22 24 24 24 25 25 26 26 23 22 21 19 17 15 13 13 14
7 12 12 9 7 5 1 2 4 4 4 2 1 1 4 6 8 8 10 12 12 10 8 5 5 5 6 8 10 8 6 5 5 4 2 1 2 2 1 3 1 4 4 3 5 7 7 5 4 6 10 13 17 20 18 17 17 18 20 22 22 22 23 23 22 20 19 20 21 21 22 24 25 24 23 23 24 22 18 17 16 14 14 13 13 14 13
3 9 13 8 4 2 3 1 2 2 2 2 2 1 1 3 6 9 11 11 10 10 8 4 5 6 5 7 9 8 6 5 4 3 1 2 4 3 2 3 1 5 7 7 8 7 4 3 4 6 8 10 15 19 19 18 18 18 18 18 18 21 23 24 22 18 15 16 18 17 16 18 19 18 16 16 16 15 13 13 13 14 14 14 15 15 13
4 6 8 5 4 5 3 2 3 3 1 1 1 1 1 2 4 6 6 6 6 8 7 5 6 6 5 6 7 6 5 5 5 5 4 5 7 7 3 0 1 6 9 9 10 9 9 9 9 8 10 14 16 16 17 18 17 17 16 15 15 18 19 19 17 14 12 13 14 14 13 13 14 14 13 13 13 12 12 13 14 15 15 16 17 16 14
6 3 5 8 8 6 3 1 2 3 2 2 0 3 2 2 5 5 6 7 6 5 6 6 6 6 6 7 8 7 7 5 4 6 6 7 10 10 6 3 4 7 8 8 9 12 14 13 12 13 14 14 11 8 9 10 10 11 12 13 15 16 15 15 15 13 13 13 13 14 14 14 14 14 14 14 13 13 13 13 14 14 14 15 16 16 15
8 6 7 8 6 3 4 2 2 4 4 3 2 2 2 3 6 8 9 11 9 7 8 9 10 10 10 11 11 10 10 10 7 7 8 10 12 9 6 6 8 9 10 11 12 13 14 14 14 16 16 13 9 8 8 7 7 10 12 13 14 14 13 13 13 12 12 12 13 14 15 14 14 14 14 14 14 14 15 15 15 14 14 14 15 16 16
8 7 5 4 3 3 3 2 3 4 4 4 2 2 3 5 3 7 9 11 10 9 9 10 13 14 14 15 15 13 11 12 12 11 12 14 14 12 11 11 13 14 14 15 15 16 16 16 16 16 15 12 9 9 9 8 9 11 12 12 12 12 11 12 12 11 11 12 13 14 14 14 15 15 14 14 15 14 15 15 15 15 16 16 16 17 17
6 7 7 7 6 4 3 2 2 2 3 3 2 1 3 6 2 2 4 6 6 5 6 8 11 13 13 15 16 16 16 16 16 15 14 14 15 15 15 16 17 18 18 18 18 18 18 18 17 16 15 12 9 10 10 10 11 12 12 12 12 13 12 11 11 11 11 11 12 12 11 11 12 13 12 12 12 12 13 13 14 15 16 17 17 17 17
9 10 11 9 7 6 4 2 1 2 3 2 2 2 5 6 3 3 4 5 5 3 2 3 6 8 9 11 13 16 17 17 17 16 14 13 15 16 18 19 18 16 16 15 16 16 17 18 18 17 16 14 10 11 12 11 11 13 14 14 15 15 13 10 10 9 9 9 10 11 10 9 10 10 10 10 9 9 9 10 11 12 14 15 15 16 16
10 11 12 10 8 8 4 2 1 1 2 3 3 3 4 5 2 3 5 5 4 3 2 1 5 8 9 10 11 13 15 16 17 18 18 18 18 18 17 16 15 14 13 13 13 12 11 13 13 14 15 14 11 10 12 12 12 13 14 15 15 15 13 11 11 10 9 9 10 10 10 10 9 10 9 9 8 8 9 10 11 12 13 14 16 17 18
9 10 10 7 6 8 4 3 4 4 5 5 4 4 5 5 4 5 6 6 4 3 2 1 4 8 12 14 15 17 18 18 18 18 18 19 19 18 15 14 14 14 14 13 12 10 9 8 8 9 12 13 11 10 9 9 9 11 12 12 12 12 12 11 11 10 9 8 7 7 7 7 8 8 8 9 10 11 12 13 13 14 16 17 18 20 21
8 9 11 9 10 11 8 6 8 9 10 8 7 6 6 6 7 7 6 5 4 5 4 3 6 11 15 18 18 18 18 18 17 17 17 17 17 17 16 15 15 15 14 13 12 11 9 7 7 8 8 9 10 10 9 8 7 8 8 9 9 10 11 10 10 9 8 8 8 8 9 9 10 11 12 13 14 15 16 17 17 18 20 21 22 23 24
15 16 16 15 14 14 12 11 11 11 11 9 9 9 8 7 8 7 5 5 6 6 5 2 9 14 16 17 18 18 16 15 15 15 16 16 15 15 14 13 14 14 13 12 11 10 9 8 7 8 8 8 8 9 9 8 8 7 7 7 7 8 9 9 10 10 10 10 11 12 12 12 13 14 14 15 16 16 17 18 19 20 21 22 24 24 25
20 19 17 14 13 13 12 11 11 10 9 9 9 10 9 8 7 5 4 6 7 7 4 1 8 12 14 15 17 18 16 15 15 15 14 14 13 13 12 11 11 11 11 10 9 8 7 7 6 6 6 6 7 7 6 6 6 7 7 6 6 7 7 8 8 9 10 10 11 12 13 13 14 15 15 16 16 17 17 18 19 20 21 22 23 24 25
13 12 11 10 10 10 9 8 8 8 8 9 9 9 8 8 7 6 5 6 7 7 5 2 5 8 11 13 14 15 14 13 13 13 12 12 11 11 10 10 9 8 8 7 7 6 5 4 4 4 3 3 3 4 4 5 6 7 8 8 8 8 9 9 10 10 11 11 12 13 14 14 15 15 16 17 17 18 19 19 20 21 22 23 24 25 26
13 12 11 10 10 10 8 7 7 7 7 7 7 7 8 8 8 8 8 8 8 8 7 4 3 4 7 10 11 12 11 10 10 9 9 8 7 6 6 6 5 4 4 4 4 4 3 3 3 3 4 4 4 5 5 6 7 8 9 9 10 10 11 12 12 13 13 13 14 15 15 16 16 16 16 17 17 18 19 20 21 22 23 24 25 26 27
15 12 11 10 9 9 9 7 6 6 6 5 4 5 6 7 7 8 9 9 9 8 8 7 6 5 5 6 7 7 7 7 8 7 6 5 4 3 2 2 2 2 2 3 3 4 4 5 5 6 6 6 7 8 8 9 9 10 10 11 12 13 13 14 15 15 15 15 15 15 16 16 17 17 17 18 19 19 20 21 22 23 24 25 26 28 28
12 9 8 8 7 7 8 7 6 6 5 5 4 4 4 3 4 4 5 5 5 4 4 4 4 4 3 3 3 2 2 3 5 6 5 5 4 4 4 4 5 5 5 6 6 6 6 7 7 7 7 7 8 8 9 10 10 11 12 12 13 14 14 15 15 15 16 16 16 17 17 18 19 19 20 20 21 22 22 23 23 24 25 25 26 27 28
10 9 8 7 7 8 8 8 8 8 7 7 6 6 5 4 4 4 4 4 4 3 4 3 3 3 3 3 3 3 4 4 4 5 5 6 6 7 7 8 8 9 9 9 9 10 10 10 10 9 9 9 9 9 10 10 10 11 11 12 12 13 13 14 14 15 15 16 17 17 17 18 19 20 20 21 21 22 22 22 23 23 23 24 24 25 25
10 9 8 7 7 8 8 7 7 8 7 6 7 7 7 7 7 6 7 7 7 8 8 8 8 8 8 8 9 9 9 8 8 9 9 9 9 10 10 11 11 11 11 12 12 12 12 12 12 12 12 11 11 12 12 12 12 12 13 13 13 13 13 13 14 14 15 15 16 17 18 18 19 19 20 20 20 20 20 20 20 20 21 21 21 21 21
9 9 8 8 7 7 7 6 6 6 6 5 5 7 7 8 8 6 5 5 6 6 8 8 9 10 10 10 10 10 9 9 9 9 11 12 12 13 13 13 13 13 13 13 13 14 14 14 14 14 14 14 14 14 14 14 14 14 14 14 14 14 14 15 15 16 16 16 17 17 17 18 18 18 18 18 18 18 18 18 18 18 18 18 18 17 17
10 9 9 8 8 7 6 5 4 5 5 4 4 6 7 8 8 6 5 4 4 3 4 5 5 7 8 9 10 10 10 9 8 9 10 11 12 13 14 14 15 15 15 16 16 16 17 17 17 16 16 16 16 16 16 16 16 16 16 16 16 16 16 16 16 16 16 16 15 15 15 15 15 16 16 17 17 17 17 17 16 16 16 16 16 15 15
10 9 8 7 6 6 5 4 2 3 4 4 4 5 6 7 8 7 7 7 6 5 5 5 4 4 4 5 7 8 9 10 10 10 11 12 13 14 15 16 17 17 17 18 19 19 19 19 18 17 17 17 17 17 17 17 17 17 16 16 16 16 15 15 14 14 14 13 13 13 13 13 13 13 14 15 15 16 16 17 17 17 17 16 16 16 16
9 9 8 6 4 4 3 2 1 2 3 3 3 4 5 5 6 6 6 6 6 6 7 7 7 7 6 5 5 6 6 7 8 9 10 12 13 14 15 16 17 18 18 19 20 19 19 19 18 17 17 17 16 16 16 16 16 15 15 14 14 14 13 12 12 12 12 12 12 12 13 13 13 13 13 13 13 14 14 15 16 17 18 18 17 17 17
6 6 5 4 2 1 1 1 1 2 2 3 2 3 3 3 3 3 4 6 6 6 7 8 9 9 8 8 6 5 5 5 6 7 8 9 10 11 13 14 15 16 17 18 19 19 19 18 17 17 17 16 16 16 15 15 14 13 13 12 11 11 10 10 9 9 10 10 11 11 12 12 12 12 12 12 12 12 13 13 14 16 17 18 18 18 18
4 3 2 1 1 1 2 2 3 4 5 4 3 3 3 3 3 4 5 6 7 6 6 8 9 9 9 9 7 5 5 5 6 6 7 7 8 9 10 11 12 13 14 16 17 17 17 17 17 16 16 16 16 15 15 14 13 12 11 11 10 10 9 9 9 9 9 10 10 11 11 12 12 12 11 11 11 11 12 12 13 14 15 16 17 18 19
3 2 1 2 2 1 1 3 4 6 6 6 6 6 6 6 6 6 7 8 8 7 7 7 8 9 9 9 8 6 5 5 6 7 7 7 8 8 8 9 10 11 12 13 14 15 16 16 16 16 16 16 15 15 14 13 12 11 10 10 9 9 9 9 9 9 10 11 11 11 11 11 11 11 11 10 10 12 12 12 12 12 13 14 16 17 17
3 2 2 2 2 1 1 3 5 6 7 7 7 8 9 9 9 9 10 10 9 8 8 8 9 9 9 9 9 8 7 6 7 7 7 8 8 8 8 8 9 10 11 11 12 13 14 15 16 17 16 15 15 14 13 12 11 11 10 10 10 9 9 9 9 10 11 11 12 11 11 11 11 11 10 10 11 12 12 11 11 12 13 14 14 15 15
2 1 1 2 2 1 2 3 4 5 6 7 7 8 9 10 11 12 12 11 9 9 9 9 10 10 11 11 10 9 8 7 7 7 8 8 8 8 8 9 10 11 11 11 10 11 13 14 15 16 16 15 15 14 13 12 12 12 11 11 10 11 10 10 10 10 11 12 12 12 11 11 10 11 10 10 11 12 12 11 11 12 13 13 13 13 13
3 2 2 2 3 2 3 3 4 5 6 7 8 9 10 11 11 12 12 11 10 11 11 12 12 12 12 12 11 10 9 8 8 8 8 9 9 9 9 9 10 10 11 10 9 9 10 12 14 15 15 14 14 13 12 12 12 11 11 10 10 10 11 10 10 11 11 12 12 12 12 11 11 10 10 10 10 10 10 10 10 12 12 13 13 12 12
5 5 4 4 4 4 4 5 6 7 8 9 10 10 10 11 11 11 12 12 12 12 13 13 13 13 14 13 11 10 9 9 8 8 9 9 10 10 10 10 10 10 10 10 8 7 8 10 12 13 13 12 12 12 11 10 10 9 9 9 9 9 10 10 10 11 11 11 11 12 12 12 11 9 8 8 8 8 9 9 10 11 12 13 13 13 12
6 6 5 5 5 5 5 6 8 8 9 10 11 11 11 11 11 11 12 13 13 13 14 14 13 14 15 14 12 9 9 9 9 8 9 9 10 10 10 10 10 9 9 9 7 6 7 9 10 11 11 10 10 10 10 9 8 8 8 8 8 9 10 10 10 11 11 11 11 11 11 10 9 8 7 6 6 6 8 9 10 11 12 13 13 13 13
6 6 6 6 5 5 6 7 8 8 9 10 10 11 11 11 12 13 13 13 14 14 14 14 14 14 15 13 11 10 9 9 9 8 8 9 10 10 10 10 10 9 9 8 7 5 5 7 8 9 10 10 10 10 9 9 8 8 8 8 8 8 10 10 10 10 10 10 9 9 9 8 7 5 5 4 5 6 7 8 9 10 11 12 12 12 12
6 6 7 7 6 6 6 7 7 8 9 9 9 10 10 10 12 13 14 14 13 12 10 11 12 13 13 12 11 11 10 10 9 8 8 9 9 10 10 10 9 9 9 8 7 5 5 6 8 9 10 10 10 10 10 9 9 8 9 9 9 9 10 11 10 9 9 9 8 8 6 5 4 3 2 3 3 4 4 5 6 6 7 8 8 9 9
7 7 8 8 7 6 6 7 7 8 8 8 8 8 8 8 9 10 11 11 11 9 8 9 10 10 10 10 11 11 11 10 10 9 9 9 9 10 10 10 9 9 8 8 8 7 6 7 9 10 11 12 12 11 11 10 10 10 10 10 10 10 11 11 9 8 8 8 7 6 4 2 2 1 1 1 1 1 1 1 2 2 3 4 5 6 7
8 8 8 7 7 7 7 7 7 8 7 7 7 7 7 7 7 7 7 8 9 8 8 9 9 9 9 10 10 10 10 10 10 9 9 9 9 9 10 10 10 9 8 8 9 9 9 10 11 11 12 13 13 12 12 11 12 11 11 11 11 10 11 11 10 9 8 7 6 5 3 2 1 1 2 3 2 2 2 1 1 2 3 4 5 6 7
8 7 7 6 6 7 7 8 8 8 7 7 6 6 6 6 6 5 5 7 8 9 9 9 10 9 9 9 9 9 9 10 10 10 9 9 9 9 9 10 10 10 9 9 9 10 11 12 12 13 13 13 13 12 12 13 13 13 12 12 12 11 11 12 11 10 9 8 7 6 5 4 3 3 4 4 4 3 3 3 3 4 5 5 6 6 7
6 6 6 6 6 7 8 8 8 7 7 7 7 6 6 6 6 5 6 7 8 9 10 10 11 11 11 10 10 10 10 11 11 11 10 9 9 8 9 10 11 11 10 9 9 10 12 12 13 13 14 13 14 13 13 13 14 13 13 13 13 12 11 12 12 11 10 9 8 7 6 5 4 4 5 5 5 4 4 5 5 5 6 6 6 6 6
7 7 7 8 8 8 8 9 8 8 7 8 7 7 7 7 6 6 7 7 8 8 9 10 11 12 12 12 12 11 10 10 10 10 10 10 10 9 9 9 10 11 11 10 9 10 11 12 12 13 13 13 14 14 14 15 15 14 14 14 14 13 12 12 13 12 11 10 9 8 7 6 6 6 6 6 6 5 5 5 6 6 6 7 7 7 7
8 8 8 9 9 9 9 9 9 8 8 8 8 8 8 8 7 8 8 8 8 8 8 9 9 10 11 11 12 11 10 9 9 10 10 10 10 10 10 10 10 11 11 11 10 9 10 11 11 11 11 12 13 14 14 15 16 16 15 14 13 12 12 13 13 12 11 10 9 8 8 7 7 7 7 7 6 6 6 6 6 6 6 7 8 8 9
8 9 9 9 9 9 9 9 9 9 9 9 9 9 10 9 9 9 8 8 8 9 9 9 9 10 10 11 11 12 11 10 10 11 11 9 8 10 11 11 11 11 11 10 9 8 8 9 10 10 11 12 12 13 14 15 15 15 14 13 11 10 11 12 13 12 11 10 9 9 8 8 8 8 8 7 6 6 6 5 5 6 6 7 8 9 10
10 10 10 10 9 9 9 10 9 9 10 10 10 10 11 10 9 9 9 9 9 10 10 10 10 10 11 12 13 13 13 12 11 11 11 9 9 10 12 11 11 10 10 10 9 8 7 8 8 9 10 11 12 13 13 13 13 13 12 12 11 10 11 11 12 12 11 10 9 9 9 8 8 8 7 6 6 5 4 4 4 5 6 7 8 9 10
10 10 10 10 9 9 9 10 10 10 10 10 10 11 11 11 10 9 9 10 10 11 11 11 11 10 11 12 12 12 11 10 9 10 11 11 10 10 10 9 9 10 10 9 8 8 7 7 8 8 9 10 11 11 11 11 10 10 11 12 12 11 11 11 11 11 10 10 9 10 9 9 8 7 6 5 5 4 3 3 3 4 5 6 7 8 9
9 9 9 10 10 9 10 10 10 10 11 11 11 11 12 12 11 10 9 10 11 11 11 11 10 10 11 11 10 10 9 8 7 9 11 11 10 10 10 9 8 8 8 8 8 8 8 7 7 7 8 8 9 9 8 8 8 9 10 11 11 12 12 11 11 11 10 10 10 10 10 9 8 7 6 5 4 3 2 1 1 2 3 4 5 6 7
8 8 8 9 9 9 10 10 10 10 11 11 12 12 12 12 11 10 10 10 10 10 10 10 10 10 10 10 9 9 9 8 8 8 10 11 10 10 10 9 8 8 8 8 8 8 7 7 6 6 7 7 7 7 7 6 7 8 9 10 10 11 11 11 10 10 10 10 10 10 9 8 7 6 6 5 4 3 2 2 1 0 1 3 3 4 5
7 8 8 9 9 10 10 10 10 10 10 11 11 12 12 12 11 11 10 10 10 10 10 10 9 9 9 9 9 9 9 9 9 9 9 10 10 10 11 11 10 8 8 8 8 8 7 6 5 5 5 6 6 6 6 6 6 6 7 8 9 9 10 10 10 10 9 9 9 8 8 7 6 6 5 5 4 4 4 3 3 2 2 2 2 3 4
8 8 9 9 10 10 10 11 11 11 11 11 11 11 12 12 11 11 11 11 11 10 10 9 9 9 9 9 9 9 9 9 9 9 9 10 11 11 12 12 11 9 8 8 8 8 7 6 5 4 5 5 6 6 6 5 5 6 7 7 8 8 9 9 9 9 8 8 8 7 7 7 6 6 6 5 5 4 5 5 5 4 4 4 4 3 3
8 9 9 10 10 10 11 11 11 11 11 12 12 11 12 12 11 11 11 12 11 10 9 9 10 11 10 9 9 9 9 9 9 9 10 10 11 12 12 12 12 11 9 9 9 9 8 7 5 4 4 5 5 6 5 5 5 6 7 7 8 8 8 8 8 8 8 8 7 7 7 7 7 6 6 6 6 5 6 6 6 6 6 6 6 5 5
Wind_Direction
242 248 252 250 249 249 233 220 214 211 208 204 207 219 222 223 237 227 189 197 168 163 217 243 250 252 251 238 217 203 199 195 187 191 203 203 208 217 227 238 251 262 253 236 228 224 222 224 225 226 228 223 218 212 195 185 190 192 190 189 187 188 194 202 206 203 200 202 204 209 216 221 225 228 229 231 235 238 242 246 251 257 261 263 264 264 261
237 241 240 236 236 245 248 233 219 211 209 205 205 211 208 197 171 129 156 200 207 216 240 251 255 255 245 222 210 205 200 197 195 195 198 205 217 226 235 245 258 266 262 248 232 224 225 227 222 217 216 215 212 205 189 180 186 189 188 189 191 193 197 202 204 203 203 209 212 215 220 224 229 233 235 238 240 240 241 246 250 254 255 256 257 257 254
223 230 226 219 221 231 242 243 229 214 210 214 212 209 198 177 136 126 151 197 219 238 259 264 262 261 244 214 205 207 205 204 206 210 215 222 233 248 249 250 266 266 251 239 218 211 222 233 228 218 210 205 203 198 187 181 185 185 183 187 192 196 199 202 203 203 204 209 213 217 223 226 230 234 237 239 240 241 244 248 251 251 247 247 252 250 243
206 195 203 205 210 222 231 237 230 207 200 203 209 214 208 199 202 204 202 233 240 246 263 263 256 260 247 215 200 202 210 210 209 217 231 240 245 250 244 237 258 278 245 208 194 209 227 229 227 221 210 198 193 189 184 182 184 184 185 192 195 195 199 204 205 206 207 209 213 219 224 226 228 231 233 236 237 238 239 239 242 245 247 250 251 242 230
202 174 181 194 202 214 225 230 244 248 226 205 193 215 223 221 219 216 220 237 241 237 245 250 241 253 250 218 199 200 211 216 220 223 233 259 262 243 233 290 324 122 134 187 196 189 181 178 180 193 195 192 188 185 181 181 183 185 189 195 196 196 201 207 208 208 209 210 211 215 218 221 224 226 227 230 234 233 231 231 236 242 243 240 232 223 218
200 173 173 178 189 197 203 256 271 279 274 295 334 239 235 225 215 209 218 231 235 231 239 239 212 238 254 218 206 215 221 216 224 225 204 218 264 262 312 338 340 154 157 175 168 153 153 157 147 165 184 194 195 194 192 188 188 191 194 195 193 190 195 204 208 208 210 213 212 213 216 217 220 223 224 229 235 236 234 233 231 229 224 218 215 215 216
198 170 173 176 181 142 85 45 329 319 293 312 1 6 324 232 219 220 225 236 241 234 236 219 190 213 231 205 206 223 225 209 204 206 198 211 233 250 301 347 70 150 147 141 137 130 135 151 153 167 186 191 185 188 196 199 200 204 207 205 203 200 199 205 209 207 204 205 206 208 212 212 212 215 217 218 223 225 221 217 214 213 216 219 219 219 218
188 189 184 170 121 107 102 75 35 22 341 337 304 241 266 255 239 234 225 230 240 232 228 220 203 204 197 189 205 220 211 196 194 197 212 228 222 216 214 319 177 167 155 146 140 132 131 137 134 141 169 179 173 171 183 194 202 210 210 203 199 200 196 193 192 186 178 180 185 190 197 203 203 201 200 200 202 205 209 212 213 216 221 223 221 220 222
195 185 123 116 124 114 88 83 62 45 36 35 142 204 235 254 236 228 214 213 220 214 212 219 221 218 213 210 217 218 208 203 197 196 211 219 208 193 171 162 204 203 193 183 169 152 144 142 131 123 139 159 162 151 162 178 190 197 188 170 165 170 170 168 170 172 175 179 185 189 193 199 201 197 196 201 205 207 211 215 217 221 226 227 224 223 229
204 181 127 124 142 104 53 78 76 53 54 48 76 129 359 309 239 223 216 211 208 203 209 220 221 222 231 229 219 211 209 209 207 210 218 210 199 196 199 206 209 209 205 194 177 161 152 148 143 137 138 147 156 150 150 160 171 173 163 151 151 156 159 164 172 179 184 187 190 191 191 194 197 195 195 202 208 209 212 217 219 222 228 230 229 230 234
208 194 152 107 99 66 49 81 74 67 67 52 81 127 17 350 258 221 215 206 201 201 213 226 223 219 226 228 220 212 208 205 200 202 210 208 205 211 214 202 188 181 178 173 164 156 152 150 149 145 138 141 152 149 139 142 154 157 150 147 153 157 159 167 174 178 183 186 187 188 191 196 200 201 201 206 211 213 217 222 224 227 232 236 238 239 241
157 138 108 83 69 53 49 71 75 85 84 62 83 133 359 354 344 198 184 173 174 187 207 223 223 220 223 227 224 219 216 209 197 193 200 207 206 199 185 171 163 158 156 154 152 152 153 154 152 144 129 123 134 140 138 143 154 155 150 150 157 158 157 162 166 166 170 174 176 180 188 194 200 204 206 210 215 217 221 227 231 235 240 243 247 250 252
120 113 105 94 68 43 41 59 85 113 96 59 32 3 353 351 6 109 112 106 105 110 142 198 211 211 213 220 224 216 207 197 184 177 180 183 177 167 156 147 143 142 140 137 138 141 144 146 146 140 126 115 120 135 140 146 158 163 161 159 160 158 154 156 163 165 169 172 174 181 187 189 192 198 205 211 214 216 224 232 236 241 247 251 255 259 262
99 106 109 99 60 40 45 69 65 119 122 80 51 27 13 9 36 103 90 76 78 84 86 176 208 203 195 198 205 196 183 175 168 163 162 160 154 149 146 141 138 136 134 130 129 130 132 134 136 136 131 124 124 136 141 142 151 160 162 162 163 162 160 164 170 173 175 176 177 182 188 190 193 201 210 217 224 233 243 249 252 255 258 261 262 263 264
88 92 96 89 47 38 60 105 86 97 113 100 84 63 52 56 78 91 78 61 59 83 97 151 200 192 182 177 176 171 165 163 162 158 157 159 157 155 155 152 150 149 146 144 144 144 141 136 134 139 141 138 139 145 148 148 152 158 161 162 164 163 163 167 171 173 176 181 186 192 198 205 212 221 230 238 244 249 253 256 259 261 262 264 264 264 264
93 80 81 87 77 70 81 100 96 96 97 92 85 76 75 84 92 89 77 57 53 65 73 116 165 170 170 168 166 165 165 164 163 163 165 167 167 165 164 161 161 160 159 160 162 162 163 164 162 161 160 156 155 159 163 167 170 173 175 177 177 175 174 178 187 196 206 218 230 236 240 242 244 247 251 253 255 256 258 260 262 263 264 265 266 266 266
107 102 98 96 89 81 79 82 86 92 94 88 79 75 78 93 106 101 72 43 54 60 57 132 168 167 169 168 165 166 169 168 165 164 164 165 165 165 164 164 165 166 169 173 175 175 178 182 182 182 183 180 177 177 179 183 189 195 197 200 203 203 199 201 209 219 230 242 253 258 260 262 262 262 262 262 263 263 263 264 265 265 266 266 267 268 269
104 101 98 94 89 86 83 81 80 82 87 83 75 72 76 88 107 109 63 50 71 76 64 167 184 177 176 176 170 166 166 166 164 160 158 157 156 154 152 151 152 154 158 163 168 171 175 179 183 186 187 187 186 186 188 195 204 208 212 218 227 234 236 237 239 243 248 253 259 263 264 265 266 266 267 267 268 269 269 269 269 268 268 268 269 270 271
102 97 95 99 99 93 89 88 83 77 78 78 75 77 81 82 86 88 77 78 92 98 98 160 202 193 188 186 178 169 163 161 159 156 151 150 149 148 147 145 145 148 148 150 160 169 175 182 190 194 198 201 205 211 219 226 232 236 240 243 246 250 255 258 260 261 261 261 263 263 263 263 264 264 266 267 268 269 270 270 271 271 272 273 274 275 276
107 107 105 104 104 102 97 93 90 84 78 74 72 76 81 81 81 82 85 88 94 99 106 118 158 198 200 192 179 167 160 159 157 152 149 150 149 146 145 144 149 160 163 169 185 200 215 232 243 254 260 263 263 260 254 250 248 248 249 252 256 260 265 268 270 271 271 271 271 269 268 268 269 271 273 273 274 275 276 276 278 279 281 281 282 283 284
101 105 104 97 94 95 93 86 87 92 87 80 76 74 74 78 79 80 84 88 90 92 97 102 111 133 159 166 165 161 161 167 169 164 159 159 161 168 180 191 207 224 235 241 245 249 256 261 268 272 273 274 274 271 268 265 262 260 259 260 261 264 267 271 274 276 278 279 280 280 281 281 282 284 285 286 287 287 288 288 288 288 289 289 289 290 290
99 109 115 106 96 95 92 85 86 90 86 80 78 70 61 58 57 59 69 79 84 86 89 96 105 112 112 117 134 148 161 184 189 188 189 197 209 225 242 257 266 271 276 277 277 279 277 277 278 278 277 278 278 275 274 272 269 269 269 268 268 270 271 274 277 279 281 282 282 284 285 286 287 288 289 290 290 291 291 291 291 291 291 290 290 290 290
108 113 111 103 102 103 95 83 79 78 73 65 58 45 28 11 358 350 350 350 346 331 322 322 311 296 294 295 292 286 283 276 262 249 242 238 241 250 259 267 272 275 277 279 280 282 283 284 285 285 285 284 282 280 278 277 275 275 274 273 274 274 275 277 278 280 281 282 282 283 284 284 285 286 286 286 286 286 287 286 286 287 287 287 288 288 288
103 104 102 99 103 102 92 78 71 68 65 62 45 24 11 2 351 341 333 330 326 320 317 315 311 307 302 297 293 290 288 282 273 263 257 252 252 258 262 267 272 275 276 278 278 279 279 281 283 284 285 284 283 283 282 282 282 282 283 284 285 286 286 287 287 287 287 287 287 288 288 287 287 286 286 286 286 286 287 287 288 287 287 287 288 288 287
100 101 103 106 108 101 86 74 64 53 50 48 21 1 353 351 352 356 346 330 323 317 314 311 308 306 304 300 297 294 290 284 273 259 251 248 250 254 257 262 266 269 271 273 275 275 275 276 276 278 281 281 281 282 282 282 283 283 285 287 288 289 289 288 288 288 288 288 288 289 290 292 293 293 294 294 295 294 294 293 293 293 292 291 291 290 289
97 96 94 97 104 99 84 73 63 48 42 34 7 353 350 352 1 19 32 27 22 5 337 322 310 300 296 295 296 295 292 287 278 266 258 253 253 255 257 260 263 265 268 270 271 272 272 272 271 273 275 276 278 279 280 281 281 281 282 283 284 285 286 287 287 288 289 290 291 292 294 296 298 300 301 301 301 301 300 299 297 296 297 298 298 298 297
89 93 93 89 90 95 94 93 78 40 33 30 16 8 5 7 16 32 39 39 44 44 30 17 0 339 321 304 294 291 288 286 281 274 268 263 259 259 260 261 263 265 268 270 270 271 273 273 273 273 272 272 274 276 277 278 279 280 281 282 283 285 286 288 290 291 292 294 296 297 299 300 300 300 300 299 300 301 303 304 304 304 302 302 301 301 301
83 95 106 105 99 107 112 105 56 27 21 16 11 10 13 20 29 35 32 29 30 28 25 23 19 13 6 351 329 309 295 288 283 278 274 270 266 264 264 263 264 265 265 267 268 269 270 272 274 273 271 271 272 273 274 275 276 277 279 280 281 283 284 285 287 289 291 294 296 298 299 298 297 297 296 295 295 295 296 298 301 301 302 302 301 300 299
69 79 101 111 112 139 193 287 313 319 320 324 332 346 352 359 9 9 5 5 5 5 5 8 9 10 11 6 356 342 325 314 304 294 289 285 280 275 271 268 266 264 263 263 263 263 262 263 264 266 267 268 269 269 269 269 270 272 274 276 278 278 278 279 280 282 286 291 295 297 297 295 294 294 292 290 288 288 288 289 291 293 296 298 298 298 297
72 62 62 45 22 314 271 286 291 286 287 289 286 286 294 302 309 315 321 327 331 333 340 346 349 353 357 359 357 347 333 321 311 306 304 301 294 289 285 281 276 272 267 262 260 258 257 255 255 256 258 260 261 262 262 263 265 268 270 272 275 276 277 279 281 284 290 296 299 301 299 297 295 292 288 285 283 282 282 284 285 286 288 290 292 293 293
89 78 49 17 22 12 276 289 293 289 289 288 282 274 269 271 277 284 292 301 308 311 315 323 329 335 340 342 342 338 325 309 303 306 306 302 298 296 294 293 292 288 280 271 264 258 253 250 250 251 252 252 253 254 255 256 258 260 262 266 270 273 276 280 285 291 296 299 300 300 298 295 291 286 280 277 275 275 276 277 278 280 282 285 286 286 285
58 56 27 356 6 6 276 288 296 295 293 289 282 277 274 271 268 268 275 289 300 304 305 310 316 320 321 321 324 326 319 308 307 309 307 305 303 300 299 299 301 300 295 285 271 259 251 246 245 245 246 246 246 246 247 248 248 247 249 255 259 263 266 270 276 282 288 290 290 289 287 284 283 279 274 269 267 268 270 273 274 275 277 279 281 281 281
36 50 7 326 334 317 271 280 294 298 292 285 280 278 278 275 270 267 270 279 291 299 302 304 308 312 312 310 314 318 314 305 305 309 310 309 306 303 302 303 304 304 303 297 281 263 250 243 240 240 239 238 236 236 237 236 236 236 238 243 247 251 253 257 263 269 275 280 281 280 279 278 277 275 270 264 262 265 269 271 272 271 272 275 278 280 281
354 349 330 309 299 286 275 280 292 298 296 291 287 285 284 281 274 267 265 268 276 283 289 294 302 309 311 308 308 312 308 300 300 308 315 315 312 308 305 305 305 307 310 307 292 268 249 240 236 234 232 229 228 227 225 224 225 230 233 237 243 247 249 252 260 266 271 277 279 280 280 279 278 277 272 263 258 262 267 269 269 267 270 274 278 281 284
335 337 333 314 295 288 283 285 291 296 298 299 299 297 295 291 282 268 260 260 264 268 273 282 293 303 305 304 302 304 301 296 296 305 315 320 321 316 311 308 307 308 313 314 302 268 242 233 230 228 227 224 220 218 217 218 222 229 235 240 247 250 251 256 262 268 273 278 281 282 283 282 280 278 272 262 255 257 261 266 268 269 272 276 279 282 285
323 327 324 312 299 292 288 289 293 294 295 297 298 299 300 298 291 277 265 262 263 265 269 275 285 294 298 298 296 295 295 293 293 298 307 317 324 324 319 313 308 305 310 318 311 275 240 231 228 225 219 214 212 213 216 219 223 232 242 250 256 258 258 259 263 269 276 282 285 286 286 284 282 279 274 265 257 256 260 266 270 273 276 279 281 284 287
312 314 315 312 309 303 293 292 294 293 292 292 292 294 298 298 291 280 271 270 273 274 273 274 280 286 291 291 290 291 294 295 295 297 300 307 317 324 324 319 310 304 303 308 309 290 252 234 227 219 212 210 213 218 222 225 227 235 246 255 261 263 262 260 261 268 276 283 288 290 289 286 282 277 271 262 257 259 266 271 274 276 279 281 285 289 292
300 304 307 309 313 313 305 301 303 301 298 294 290 291 298 298 290 281 275 273 274 274 270 268 273 278 282 283 285 290 294 297 301 303 302 302 309 319 323 323 316 306 296 290 289 283 255 231 225 221 218 219 224 227 230 233 236 239 248 256 262 265 262 257 255 262 273 281 287 292 293 296 294 280 264 261 262 265 272 275 276 279 284 289 295 300 303
300 301 299 299 305 312 310 308 309 309 307 301 293 292 302 310 304 291 279 270 267 266 264 265 268 272 277 282 287 293 296 298 301 305 306 304 305 309 318 325 323 312 297 283 274 265 249 234 229 228 227 230 235 237 239 242 243 245 250 257 261 264 261 254 248 251 262 272 282 288 294 309 316 281 193 178 217 225 229 252 275 301 317 321 326 329 329
306 306 301 294 297 307 313 312 311 311 312 307 295 291 305 321 322 308 287 271 264 260 259 263 267 273 278 285 293 298 299 298 300 304 306 305 303 304 313 323 326 318 301 281 267 259 251 243 237 236 236 238 241 242 244 247 250 251 255 258 260 261 257 249 241 241 250 260 271 275 273 269 261 217 174 156 159 156 139 107 56 30 14 1 356 353 347
313 311 304 294 294 303 312 315 314 314 316 313 301 293 301 315 323 317 295 277 269 265 261 262 266 271 276 281 285 288 290 293 299 304 305 303 301 303 309 317 322 319 308 288 268 258 254 249 244 243 244 244 246 247 249 251 253 254 256 259 260 258 252 244 236 234 241 251 259 259 249 235 220 202 177 155 141 128 107 84 63 45 30 17 8 0 353
313 308 302 300 302 306 310 312 311 308 307 306 301 293 288 294 302 303 291 280 277 275 272 270 271 272 275 277 279 282 287 294 301 306 308 305 302 300 303 309 314 316 313 301 279 263 256 252 249 248 247 247 248 249 248 250 253 255 256 257 256 252 245 238 233 230 234 244 250 249 239 221 200 182 165 145 130 116 99 80 63 49 37 26 17 11 5
301 301 302 304 305 306 307 308 306 303 301 300 296 289 283 281 286 291 292 289 285 280 276 274 275 276 279 282 285 286 288 293 297 303 309 310 306 298 296 300 307 312 315 311 294 273 260 254 252 251 250 250 250 249 247 247 249 251 252 253 254 251 242 233 229 229 233 240 242 238 225 207 186 171 158 142 128 114 94 74 59 48 39 32 26 23 20
295 300 302 304 306 307 307 305 301 298 295 292 288 285 283 281 280 283 288 292 292 286 279 274 273 274 276 280 281 281 280 283 287 293 302 309 308 300 294 296 304 310 313 314 306 286 267 257 252 251 250 250 249 249 248 248 249 250 251 251 251 248 239 229 225 227 234 239 239 230 215 196 179 166 154 141 127 112 94 77 62 51 43 37 33 30 28
293 296 299 302 305 307 304 300 296 291 287 285 286 287 287 285 282 281 282 283 284 284 281 277 273 271 269 268 268 270 271 273 278 287 296 301 299 294 294 298 305 310 312 314 310 295 275 260 253 250 250 252 252 251 251 251 252 254 254 250 242 236 231 225 222 226 233 236 232 220 205 188 173 162 152 141 129 116 102 88 73 58 47 39 35 35 34
293 296 299 302 304 302 300 299 299 296 292 291 291 291 291 290 288 285 281 277 275 276 276 274 271 268 264 262 265 271 274 272 272 280 289 290 286 288 294 299 302 306 311 314 308 296 278 261 253 249 249 253 257 259 260 260 259 257 252 244 233 226 222 218 218 224 230 229 219 206 193 181 170 162 153 145 135 124 111 100 85 69 56 45 38 36 37
296 302 307 310 311 309 305 303 303 303 301 297 293 289 287 288 288 286 282 277 274 273 272 272 270 268 266 267 271 277 280 277 274 279 284 286 287 290 295 296 297 303 310 312 307 297 284 267 257 252 250 254 259 264 266 266 262 254 246 239 230 221 215 212 213 217 219 215 204 193 184 177 172 167 162 156 149 139 125 112 94 73 61 53 44 38 36
303 310 315 319 322 322 317 310 306 302 299 296 293 289 286 286 287 287 282 276 275 275 275 273 270 267 266 269 272 274 275 273 271 274 279 284 288 292 292 288 288 295 305 308 305 299 289 275 265 260 258 260 265 267 267 264 256 247 240 234 225 216 210 208 207 206 203 199 195 190 186 182 180 179 179 178 176 173 170 150 103 70 58 52 46 38 35
307 312 317 320 324 326 325 320 313 305 299 296 295 293 293 293 293 290 284 278 277 277 275 273 269 266 265 268 269 269 269 266 261 262 269 276 281 284 285 284 281 285 295 303 305 301 292 280 270 265 263 265 267 267 263 257 249 240 232 225 218 212 206 201 197 194 193 192 192 193 194 195 195 195 198 203 206 215 228 239 253 10 31 34 34 32 30
309 314 315 316 319 322 324 323 320 313 305 300 296 296 299 300 297 290 282 279 276 273 272 270 268 266 266 268 269 269 269 268 263 261 264 271 274 276 280 282 283 280 279 286 295 299 294 284 272 266 265 265 266 264 259 249 238 229 221 213 207 203 197 191 189 190 191 194 198 202 205 209 212 214 217 222 229 238 250 260 269 281 299 324 349 4 15
309 310 311 312 315 319 321 322 321 320 316 311 307 305 305 304 300 291 282 277 273 271 269 267 264 262 263 267 269 270 271 271 271 271 272 274 275 277 279 281 281 276 269 268 277 288 291 287 278 269 262 261 261 259 252 237 220 209 203 199 196 193 190 189 190 192 194 198 202 206 210 217 223 226 229 234 241 251 260 267 272 278 285 291 299 316 336
305 308 309 312 315 317 318 317 318 319 319 317 314 311 307 304 301 295 286 281 277 273 266 262 262 262 261 261 262 265 267 269 271 273 274 273 272 273 274 275 275 272 266 260 261 267 274 278 276 266 254 250 250 248 242 231 217 205 197 194 193 192 193 194 196 198 201 205 209 213 218 225 231 235 237 241 246 254 261 267 273 277 282 285 288 294 303
Height
3063 3063 3064 3065 3066 3067 3066 3066 3067 3067 3068 3068 3068 3069 3069 3069 3069 3069 3070 3071 3071 3071 3071 3071 3071 3072 3072 3073 3074 3074 3075 3075 3075 3075 3075 3076 3076 3076 3076 3076 3076 3076 3077 3076 3076 3076 3077 3078 3079 3082 3083 3085 3086 3087 3089 3093 3096 3098 3099 3099 3101 3102 3103 3104 3107 3112 3114 3115 3116 3119 3121 3122 3124 3126 3127 3129 3130 3131 3131 3132 3133 3134 3135 3136 3137 3138 3138
3062 3062 3063 3064 3065 3066 3065 3066 3066 3066 3067 3067 3067 3067 3068 3068 3068 3069 3070 3070 3070 3070 3070 3070 3071 3071 3072 3072 3073 3074 3074 3074 3075 3075 3075 3075 3076 3075 3076 3076 3076 3075 3075 3075 3075 3076 3077 3077 3079 3081 3083 3084 3085 3086 3088 3091 3093 3095 3097 3098 3100 3102 3103 3104 3106 3109 3111 3112 3114 3116 3118 3120 3122 3123 3125 3126 3127 3128 3129 3130 3131 3132 3133 3133 3135 3136 3136
3061 3061 3061 3063 3064 3064 3065 3065 3065 3065 3066 3066 3066 3066 3067 3068 3069 3069 3069 3069 3069 3069 3070 3070 3070 3071 3071 3072 3072 3073 3073 3074 3074 3074 3075 3075 3075 3075 3075 3075 3075 3075 3074 3074 3075 3076 3076 3077 3078 3079 3081 3082 3083 3085 3087 3088 3090 3093 3095 3096 3097 3100 3102 3104 3105 3107 3108 3109 3112 3114 3116 3118 3119 3121 3122 3123 3124 3126 3127 3128 3129 3130 3130 3131 3132 3134 3135
3061 3060 3061 3061 3063 3063 3064 3064 3064 3064 3064 3065 3065 3066 3066 3067 3068 3069 3069 3069 3069 3069 3069 3069 3069 3070 3071 3071 3072 3073 3073 3073 3074 3074 3074 3074 3074 3074 3074 3074 3074 3074 3074 3074 3075 3076 3076 3077 3077 3078 3079 3081 3082 3084 3086 3087 3088 3091 3093 3094 3095 3098 3101 3102 3103 3105 3107 3108 3110 3113 3114 3115 3116 3118 3119 3120 3122 3123 3124 3125 3126 3127 3128 3128 3129 3131 3132
3060 3060 3060 3061 3062 3062 3063 3063 3064 3064 3064 3064 3065 3065 3065 3066 3066 3068 3069 3069 3069 3069 3069 3068 3069 3069 3070 3071 3072 3073 3073 3073 3074 3074 3074 3074 3074 3074 3074 3074 3074 3074 3074 3074 3075 3076 3076 3077 3077 3077 3079 3080 3082 3084 3085 3087 3088 3090 3092 3093 3095 3097 3100 3102 3103 3104 3107 3108 3110 3111 3112 3113 3114 3115 3116 3118 3119 3119 3121 3122 3123 3124 3125 3126 3127 3129 3130
3060 3059 3059 3060 3060 3061 3062 3063 3063 3064 3064 3064 3065 3065 3065 3065 3066 3066 3067 3067 3068 3068 3068 3068 3069 3069 3069 3070 3071 3072 3072 3073 3074 3074 3074 3074 3074 3074 3074 3074 3074 3074 3074 3075 3076 3077 3077 3077 3078 3079 3079 3081 3082 3084 3086 3087 3088 3090 3091 3092 3094 3095 3098 3100 3101 3102 3104 3106 3107 3108 3109 3110 3111 3112 3114 3116 3117 3118 3119 3120 3121 3122 3123 3124 3126 3127 3129
3060 3059 3058 3059 3060 3061 3063 3064 3063 3063 3064 3064 3064 3065 3065 3064 3065 3065 3065 3066 3066 3067 3067 3068 3068 3069 3069 3069 3070 3071 3072 3073 3074 3074 3074 3074 3074 3074 3074 3075 3075 3075 3075 3076 3077 3078 3078 3079 3079 3080 3081 3082 3082 3084 3085 3086 3087 3089 3090 3091 3092 3093 3095 3098 3100 3101 3102 3104 3105 3107 3108 3109 3110 3112 3113 3114 3116 3117 3118 3119 3120 3121 3122 3123 3124 3126 3127
3059 3058 3057 3057 3060 3062 3063 3063 3063 3063 3063 3063 3064 3064 3064 3064 3064 3064 3065 3065 3065 3066 3066 3067 3068 3068 3068 3069 3070 3071 3071 3072 3073 3073 3074 3074 3074 3074 3074 3075 3076 3076 3077 3077 3077 3078 3079 3079 3080 3080 3082 3083 3084 3084 3085 3085 3086 3088 3089 3090 3091 3092 3094 3096 3098 3099 3101 3103 3104 3106 3108 3109 3110 3111 3113 3114 3115 3116 3117 3118 3119 3119 3120 3121 3122 3123 3125
3057 3057 3057 3058 3060 3062 3063 3063 3063 3063 3063 3063 3063 3063 3063 3063 3063 3063 3064 3064 3064 3065 3066 3066 3067 3068 3068 3069 3069 3070 3071 3071 3072 3073 3073 3074 3074 3074 3074 3075 3076 3077 3077 3077 3078 3078 3079 3080 3080 3081 3082 3083 3084 3085 3085 3085 3086 3087 3089 3089 3091 3092 3094 3096 3097 3098 3100 3102 3104 3105 3107 3108 3109 3110 3112 3113 3114 3115 3116 3117 3118 3119 3120 3120 3121 3122 3123
3056 3055 3057 3058 3060 3062 3063 3063 3063 3063 3063 3063 3063 3063 3063 3063 3063 3063 3063 3063 3063 3064 3064 3066 3066 3067 3067 3068 3068 3069 3070 3071 3072 3073 3073 3074 3074 3074 3074 3075 3076 3076 3077 3077 3077 3078 3079 3080 3080 3081 3082 3084 3084 3084 3084 3085 3086 3087 3089 3090 3091 3092 3094 3095 3097 3098 3100 3102 3103 3105 3106 3107 3108 3109 3110 3111 3112 3114 3115 3116 3117 3118 3118 3119 3120 3121 3122
3055 3054 3055 3058 3060 3063 3064 3063 3063 3063 3063 3063 3063 3063 3063 3063 3062 3062 3061 3061 3062 3062 3063 3064 3065 3066 3066 3066 3067 3068 3069 3070 3071 3071 3072 3073 3073 3073 3074 3074 3075 3075 3075 3076 3076 3077 3078 3079 3080 3081 3081 3082 3084 3084 3084 3085 3086 3087 3088 3089 3091 3092 3094 3095 3096 3098 3099 3101 3102 3104 3105 3106 3107 3108 3109 3110 3111 3112 3113 3114 3115 3116 3117 3118 3118 3119 3120
3055 3055 3057 3060 3063 3064 3063 3063 3063 3063 3063 3063 3063 3063 3063 3063 3062 3061 3061 3061 3061 3061 3062 3063 3064 3065 3065 3066 3066 3067 3067 3068 3069 3070 3071 3072 3072 3072 3072 3073 3074 3074 3075 3075 3075 3076 3077 3078 3079 3080 3080 3081 3082 3083 3084 3085 3086 3087 3088 3089 3091 3092 3094 3095 3096 3097 3099 3100 3101 3103 3104 3105 3106 3107 3108 3109 3110 3111 3112 3113 3114 3115 3116 3116 3117 3118 3118
3055 3056 3058 3061 3063 3064 3063 3063 3063 3063 3063 3063 3063 3063 3063 3063 3062 3062 3061 3061 3061 3061 3062 3063 3063 3064 3064 3065 3066 3066 3066 3067 3068 3069 3070 3071 3071 3072 3072 3073 3074 3075 3075 3076 3076 3076 3077 3078 3078 3079 3080 3081 3082 3083 3084 3085 3086 3087 3088 3089 3090 3092 3093 3095 3096 3097 3099 3100 3101 3103 3104 3104 3105 3107 3107 3108 3109 3110 3111 3112 3112 3113 3114 3114 3115 3116 3116
3056 3057 3059 3061 3063 3064 3064 3064 3063 3063 3064 3064 3064 3064 3064 3063 3063 3062 3062 3062 3062 3062 3062 3063 3063 3063 3064 3065 3066 3066 3067 3068 3068 3068 3069 3070 3071 3072 3073 3073 3074 3075 3076 3076 3077 3077 3078 3078 3079 3079 3079 3080 3083 3084 3084 3085 3086 3087 3088 3089 3090 3091 3093 3094 3096 3097 3098 3100 3101 3102 3103 3104 3105 3106 3107 3107 3108 3109 3110 3110 3111 3112 3112 3113 3113 3114 3114
3058 3059 3060 3063 3065 3065 3064 3064 3064 3064 3064 3064 3065 3064 3064 3063 3063 3063 3063 3064 3063 3063 3063 3063 3063 3063 3064 3065 3065 3066 3067 3068 3068 3069 3069 3070 3071 3072 3072 3073 3074 3075 3076 3077 3077 3078 3079 3079 3080 3080 3080 3081 3082 3083 3084 3085 3086 3087 3088 3089 3090 3091 3092 3094 3095 3096 3097 3099 3100 3101 3102 3103 3104 3105 3105 3106 3107 3107 3108 3109 3109 3110 3110 3111 3111 3112 3112
3059 3061 3063 3066 3067 3066 3065 3065 3065 3065 3065 3065 3065 3065 3064 3064 3064 3065 3065 3065 3064 3064 3063 3063 3063 3064 3064 3065 3066 3067 3067 3068 3068 3069 3069 3070 3071 3072 3072 3073 3074 3075 3076 3077 3078 3078 3079 3080 3080 3081 3081 3082 3082 3083 3083 3085 3086 3087 3088 3089 3090 3091 3092 3093 3094 3095 3097 3098 3099 3100 3101 3102 3103 3103 3104 3104 3105 3105 3106 3106 3107 3107 3108 3108 3109 3109 3109
3060 3063 3065 3067 3067 3067 3067 3067 3066 3066 3066 3066 3066 3065 3065 3065 3065 3066 3066 3066 3065 3065 3065 3065 3065 3065 3065 3066 3066 3067 3068 3068 3069 3069 3069 3070 3071 3071 3072 3073 3074 3075 3076 3077 3077 3078 3079 3080 3080 3080 3081 3082 3083 3083 3083 3084 3085 3086 3087 3089 3090 3091 3092 3093 3094 3095 3096 3096 3097 3098 3099 3099 3100 3101 3101 3102 3102 3103 3103 3104 3104 3105 3105 3106 3106 3106 3106
3062 3065 3067 3068 3068 3068 3069 3068 3068 3068 3068 3067 3067 3067 3066 3067 3067 3067 3067 3067 3066 3066 3066 3067 3067 3067 3067 3067 3067 3068 3068 3069 3069 3069 3070 3070 3071 3071 3072 3073 3073 3074 3075 3076 3077 3077 3078 3079 3080 3080 3081 3081 3082 3083 3083 3084 3085 3086 3087 3088 3089 3090 3091 3092 3093 3094 3094 3095 3096 3096 3097 3097 3098 3098 3099 3099 3100 3100 3101 3101 3101 3102 3102 3102 3103 3103 3103
3065 3067 3069 3069 3070 3070 3070 3070 3070 3069 3069 3069 3069 3068 3068 3068 3068 3068 3068 3068 3068 3068 3068 3068 3068 3068 3068 3069 3068 3068 3069 3069 3070 3070 3070 3071 3071 3072 3072 3073 3073 3074 3075 3075 3076 3077 3078 3079 3079 3080 3080 3081 3081 3082 3082 3083 3083 3084 3085 3086 3087 3088 3089 3090 3090 3091 3092 3093 3094 3094 3095 3096 3096 3096 3097 3097 3098 3098 3098 3098 3098 3099 3099 3099 3099 3099 3099
3067 3069 3070 3070 3071 3071 3071 3071 3071 3070 3070 3070 3070 3070 3069 3069 3069 3069 3069 3069 3069 3069 3069 3069 3070 3070 3070 3070 3069 3069 3069 3070 3070 3070 3071 3071 3072 3072 3072 3073 3073 3074 3075 3075 3076 3077 3078 3078 3079 3079 3080 3080 3080 3081 3081 3082 3083 3083 3084 3085 3086 3086 3087 3087 3088 3088 3089 3090 3091 3092 3092 3093 3093 3094 3094 3094 3095 3095 3095 3095 3095 3095 3095 3095 3095 3095 3094
3069 3070 3071 3072 3072 3072 3072 3072 3072 3071 3071 3071 3071 3071 3071 3071 3071 3070 3070 3070 3070 3070 3070 3070 3070 3070 3070 3070 3070 3070 3070 3071 3071 3071 3071 3072 3072 3072 3073 3073 3073 3074 3074 3075 3075 3076 3077 3078 3078 3079 3079 3079 3080 3080 3081 3081 3082 3082 3083 3084 3084 3085 3085 3085 3086 3086 3087 3087 3088 3088 3089 3089 3090 3090 3090 3091 3091 3091 3091 3091 3091 3091 3091 3091 3090 3090 3090
3071 3072 3073 3073 3074 3073 3073 3073 3072 3072 3072 3072 3072 3072 3072 3072 3072 3071 3071 3071 3071 3071 3071 3071 3071 3071 3071 3071 3071 3071 3071 3071 3071 3071 3072 3072 3072 3073 3073 3073 3073 3073 3073 3074 3074 3075 3075 3076 3077 3077 3078 3078 3079 3079 3080 3080 3081 3081 3082 3082 3082 3083 3083 3083 3084 3084 3084 3085 3085 3086 3086 3086 3086 3087 3087 3087 3087 3087 3088 3088 3088 3087 3087 3087 3086 3086 3086
3072 3072 3073 3073 3074 3073 3073 3073 3073 3073 3073 3073 3073 3072 3072 3072 3072 3072 3072 3072 3072 3072 3072 3072 3072 3072 3071 3071 3071 3071 3071 3071 3072 3072 3072 3072 3072 3072 3073 3073 3073 3073 3073 3073 3073 3073 3074 3074 3075 3075 3076 3077 3077 3078 3078 3078 3079 3079 3079 3080 3080 3080 3081 3081 3082 3082 3082 3083 3083 3083 3083 3084 3084 3084 3084 3084 3084 3085 3085 3085 3085 3084 3084 3083 3083 3082 3082
3071 3072 3073 3074 3074 3073 3073 3074 3073 3073 3074 3074 3073 3073 3073 3073 3072 3072 3072 3072 3072 3072 3071 3071 3071 3071 3071 3071 3071 3071 3071 3071 3071 3072 3072 3072 3072 3072 3072 3072 3072 3072 3073 3073 3073 3073 3073 3073 3073 3074 3074 3075 3075 3075 3075 3076 3076 3076 3076 3076 3077 3077 3077 3078 3078 3079 3079 3079 3079 3079 3079 3080 3080 3080 3080 3081 3081 3081 3081 3081 3080 3080 3080 3080 3079 3079 3078
3071 3072 3073 3074 3074 3073 3074 3074 3074 3074 3074 3074 3074 3073 3073 3073 3073 3072 3072 3072 3072 3071 3071 3071 3071 3070 3070 3070 3070 3070 3070 3071 3071 3071 3071 3071 3071 3071 3071 3071 3072 3072 3072 3072 3072 3072 3072 3072 3072 3072 3072 3073 3073 3073 3073 3073 3073 3073 3073 3074 3074 3074 3074 3075 3075 3075 3076 3076 3076 3076 3076 3075 3076 3076 3076 3076 3076 3076 3076 3076 3076 3076 3076 3076 3076 3075 3075
3072 3072 3073 3074 3074 3074 3074 3074 3074 3074 3074 3074 3073 3073 3073 3073 3072 3072 3072 3071 3071 3071 3071 3071 3070 3070 3070 3069 3069 3069 3069 3069 3070 3070 3070 3070 3070 3070 3070 3070 3070 3070 3070 3070 3070 3070 3070 3070 3070 3071 3071 3071 3071 3071 3071 3071 3071 3071 3071 3071 3072 3072 3072 3072 3072 3072 3072 3072 3073 3073 3073 3073 3072 3072 3072 3072 3072 3072 3072 3072 3072 3072 3072 3072 3072 3072 3071
3073 3074 3075 3075 3075 3075 3075 3075 3075 3074 3074 3074 3073 3073 3073 3073 3072 3072 3072 3072 3071 3071 3071 3070 3070 3070 3069 3069 3069 3068 3068 3068 3068 3068 3069 3069 3069 3069 3069 3069 3069 3068 3068 3068 3068 3068 3068 3068 3068 3068 3068 3068 3069 3069 3069 3068 3068 3069 3069 3069 3069 3069 3069 3069 3069 3069 3070 3070 3070 3070 3070 3070 3071 3070 3070 3070 3069 3069 3068 3068 3068 3068 3068 3068 3069 3068 3068
3074 3074 3075 3076 3077 3076 3075 3076 3076 3075 3075 3075 3074 3073 3073 3073 3073 3073 3072 3072 3072 3072 3071 3071 3070 3069 3069 3069 3068 3068 3067 3067 3067 3067 3067 3067 3067 3067 3067 3067 3067 3066 3066 3066 3065 3065 3065 3065 3065 3065 3065 3066 3066 3066 3066 3066 3066 3066 3066 3067 3067 3067 3067 3067 3068 3068 3068 3068 3068 3068 3068 3068 3069 3069 3069 3068 3068 3067 3067 3067 3066 3066 3065 3065 3066 3066 3066
3075 3075 3075 3075 3076 3076 3076 3076 3076 3075 3075 3075 3075 3074 3074 3074 3073 3073 3073 3072 3072 3072 3071 3071 3070 3069 3069 3068 3068 3067 3067 3066 3066 3066 3066 3065 3065 3065 3065 3065 3065 3064 3064 3064 3063 3063 3063 3063 3063 3063 3063 3064 3064 3065 3065 3065 3065 3065 3065 3065 3065 3065 3066 3066 3066 3066 3067 3067 3067 3067 3067 3067 3067 3067 3067 3067 3067 3066 3066 3066 3066 3065 3065 3064 3064 3064 3064
3076 3076 3076 3075 3075 3076 3076 3075 3075 3075 3075 3075 3075 3074 3074 3074 3073 3073 3072 3072 3072 3072 3071 3071 3070 3070 3069 3068 3068 3067 3066 3066 3065 3065 3065 3065 3064 3064 3063 3063 3063 3062 3062 3061 3061 3061 3061 3061 3062 3062 3062 3062 3063 3063 3063 3063 3063 3063 3063 3063 3064 3064 3064 3064 3065 3065 3065 3065 3065 3065 3065 3065 3065 3065 3065 3065 3065 3065 3065 3065 3065 3065 3064 3064 3063 3063 3062
3076 3076 3076 3076 3076 3076 3075 3075 3075 3075 3075 3074 3074 3074 3074 3074 3073 3073 3072 3072 3072 3072 3071 3070 3070 3070 3069 3068 3068 3067 3066 3065 3065 3064 3064 3064 3063 3063 3062 3062 3061 3061 3060 3060 3059 3059 3059 3059 3059 3060 3060 3060 3061 3061 3061 3062 3062 3062 3062 3062 3062 3062 3063 3063 3063 3063 3063 3063 3063 3063 3064 3063 3063 3064 3064 3064 3064 3064 3063 3064 3064 3063 3063 3062 3062 3062 3061
3076 3076 3076 3076 3075 3075 3075 3075 3075 3074 3074 3074 3073 3073 3072 3072 3072 3072 3072 3072 3072 3071 3071 3070 3070 3069 3069 3068 3067 3066 3066 3065 3064 3064 3063 3062 3062 3061 3061 3060 3060 3059 3058 3058 3057 3057 3057 3057 3057 3057 3058 3059 3059 3060 3060 3060 3061 3061 3061 3061 3061 3062 3062 3062 3062 3062 3062 3062 3063 3063 3063 3063 3062 3062 3062 3062 3062 3062 3062 3062 3062 3062 3061 3061 3060 3060 3060
3076 3076 3076 3075 3075 3075 3075 3074 3074 3073 3073 3072 3072 3072 3071 3071 3071 3071 3070 3070 3070 3070 3070 3070 3069 3068 3068 3067 3066 3066 3065 3064 3063 3063 3062 3061 3060 3060 3059 3059 3058 3057 3057 3056 3055 3055 3055 3055 3055 3056 3056 3057 3058 3058 3059 3060 3060 3060 3061 3061 3061 3061 3061 3061 3061 3062 3062 3062 3062 3062 3062 3062 3061 3061 3061 3061 3060 3060 3060 3060 3060 3060 3059 3059 3059 3058 3058
3075 3075 3075 3074 3074 3074 3074 3073 3073 3072 3072 3071 3071 3070 3070 3069 3069 3069 3069 3069 3069 3069 3068 3068 3068 3068 3067 3066 3065 3065 3064 3063 3063 3062 3061 3060 3060 3059 3058 3057 3057 3056 3055 3054 3053 3053 3053 3053 3053 3054 3055 3055 3056 3057 3058 3059 3059 3059 3059 3059 3060 3060 3060 3060 3060 3061 3061 3061 3060 3060 3060 3060 3059 3059 3059 3058 3058 3058 3058 3058 3058 3058 3057 3057 3057 3057 3057
3074 3074 3073 3073 3073 3073 3073 3072 3071 3071 3070 3070 3069 3069 3068 3068 3067 3067 3067 3067 3067 3067 3067 3067 3067 3066 3066 3065 3064 3064 3063 3062 3062 3061 3060 3059 3059 3058 3057 3056 3055 3054 3053 3052 3052 3051 3051 3051 3052 3052 3053 3054 3055 3056 3057 3057 3058 3058 3058 3058 3058 3058 3058 3059 3059 3059 3059 3059 3058 3058 3058 3057 3057 3057 3056 3056 3056 3056 3056 3056 3056 3056 3056 3055 3055 3055 3055
3073 3073 3072 3072 3072 3071 3071 3071 3070 3070 3069 3068 3068 3067 3067 3066 3066 3066 3066 3065 3065 3065 3065 3065 3065 3065 3064 3064 3063 3063 3062 3061 3061 3060 3059 3059 3058 3057 3056 3055 3054 3054 3053 3052 3051 3050 3050 3050 3050 3051 3052 3052 3053 3054 3055 3056 3057 3057 3057 3057 3057 3057 3057 3057 3057 3057 3057 3057 3057 3056 3056 3055 3055 3055 3054 3054 3055 3054 3054 3054 3054 3054 3054 3054 3053 3053 3053
3072 3071 3071 3071 3070 3070 3069 3069 3068 3068 3067 3067 3066 3066 3065 3065 3064 3064 3064 3064 3064 3063 3063 3063 3063 3063 3063 3062 3062 3061 3061 3060 3060 3059 3059 3058 3057 3056 3055 3054 3053 3053 3052 3051 3051 3050 3050 3050 3050 3051 3051 3052 3053 3054 3054 3055 3055 3056 3056 3056 3056 3056 3056 3055 3055 3055 3056 3055 3055 3055 3054 3054 3054 3053 3053 3053 3053 3053 3053 3053 3053 3053 3053 3052 3052 3051 3051
3070 3070 3070 3070 3069 3069 3068 3068 3067 3067 3066 3066 3065 3064 3064 3064 3063 3062 3062 3062 3062 3062 3061 3061 3062 3061 3061 3061 3060 3060 3059 3059 3059 3058 3058 3057 3056 3055 3054 3053 3052 3052 3051 3051 3050 3050 3050 3050 3050 3051 3051 3051 3052 3053 3053 3053 3054 3055 3055 3054 3054 3054 3054 3054 3054 3054 3054 3054 3054 3054 3053 3053 3052 3052 3052 3052 3052 3052 3052 3052 3052 3051 3051 3051 3050 3049 3049
3069 3069 3069 3068 3068 3068 3067 3067 3066 3065 3065 3064 3064 3063 3063 3062 3061 3061 3060 3061 3060 3060 3060 3060 3060 3060 3060 3059 3059 3058 3058 3058 3057 3057 3056 3056 3055 3054 3053 3052 3051 3051 3050 3050 3050 3049 3049 3049 3050 3050 3050 3051 3051 3052 3052 3052 3053 3053 3053 3053 3053 3053 3053 3053 3053 3053 3053 3053 3053 3053 3053 3052 3052 3051 3051 3051 3051 3051 3051 3051 3051 3050 3050 3049 3049 3048 3047
3068 3068 3067 3067 3067 3066 3066 3065 3065 3064 3064 3063 3062 3062 3061 3061 3060 3060 3060 3060 3059 3059 3059 3059 3059 3059 3059 3058 3058 3058 3057 3056 3056 3055 3055 3054 3054 3053 3052 3051 3050 3050 3049 3049 3048 3048 3048 3048 3049 3049 3049 3050 3050 3050 3050 3051 3051 3051 3052 3051 3051 3051 3052 3052 3052 3052 3052 3052 3052 3052 3052 3052 3051 3051 3051 3051 3051 3051 3051 3051 3050 3050 3049 3049 3048 3047 3046
3067 3066 3066 3066 3065 3065 3065 3064 3063 3063 3062 3062 3061 3061 3060 3060 3059 3059 3059 3059 3058 3058 3058 3058 3058 3058 3057 3057 3057 3057 3056 3055 3054 3054 3053 3053 3052 3052 3051 3050 3049 3049 3048 3047 3047 3047 3046 3047 3047 3047 3048 3048 3048 3048 3049 3049 3049 3050 3050 3050 3050 3050 3050 3050 3050 3051 3051 3051 3051 3051 3051 3051 3051 3051 3051 3051 3051 3051 3050 3050 3050 3049 3049 3048 3047 3046 3046
3066 3065 3065 3065 3064 3064 3063 3063 3062 3062 3061 3061 3060 3060 3059 3059 3058 3058 3058 3057 3057 3057 3057 3056 3056 3056 3056 3055 3055 3055 3054 3054 3053 3052 3052 3051 3051 3051 3050 3049 3048 3047 3047 3046 3045 3045 3045 3045 3045 3045 3046 3046 3046 3046 3047 3047 3047 3047 3048 3048 3048 3048 3048 3048 3049 3049 3050 3050 3050 3051 3051 3050 3050 3050 3050 3050 3050 3050 3050 3050 3049 3049 3048 3048 3047 3046 3045
3065 3064 3064 3064 3063 3062 3062 3061 3061 3061 3060 3059 3059 3058 3058 3057 3057 3057 3056 3056 3056 3056 3055 3055 3055 3054 3054 3054 3053 3053 3053 3052 3052 3051 3051 3050 3050 3049 3049 3048 3047 3046 3045 3044 3044 3043 3043 3043 3043 3044 3044 3044 3044 3044 3045 3045 3045 3045 3046 3046 3046 3046 3047 3047 3047 3048 3048 3049 3049 3049 3050 3050 3050 3050 3050 3050 3050 3050 3050 3049 3049 3048 3048 3048 3047 3046 3045
3064 3063 3063 3062 3062 3061 3060 3060 3059 3059 3059 3058 3057 3057 3056 3056 3056 3055 3055 3055 3054 3054 3054 3054 3053 3053 3052 3052 3052 3051 3051 3051 3050 3050 3049 3049 3048 3048 3047 3047 3046 3045 3044 3043 3042 3042 3041 3041 3042 3042 3042 3042 3042 3042 3042 3042 3043 3043 3043 3044 3044 3045 3045 3045 3046 3046 3047 3047 3048 3048 3049 3049 3049 3049 3049 3049 3050 3049 3049 3049 3049 3048 3048 3047 3046 3045 3044
3062 3062 3061 3061 3060 3060 3059 3058 3058 3058 3057 3056 3056 3055 3055 3055 3054 3054 3053 3053 3053 3052 3052 3052 3052 3051 3051 3050 3050 3050 3049 3049 3049 3048 3048 3048 3048 3046 3046 3045 3044 3043 3043 3042 3041 3040 3040 3040 3040 3040 3040 3040 3040 3040 3040 3040 3041 3041 3042 3042 3043 3043 3043 3044 3044 3045 3046 3046 3047 3047 3048 3048 3048 3048 3049 3049 3049 3049 3049 3048 3048 3048 3048 3047 3046 3045 3044
3061 3060 3060 3059 3059 3058 3057 3057 3056 3056 3055 3055 3054 3054 3053 3053 3052 3052 3052 3051 3051 3051 3050 3050 3050 3049 3049 3048 3048 3048 3047 3047 3047 3047 3046 3046 3046 3045 3044 3044 3043 3042 3041 3041 3040 3039 3039 3038 3038 3038 3038 3038 3038 3038 3038 3038 3039 3039 3040 3040 3041 3042 3042 3043 3043 3044 3044 3045 3045 3046 3047 3047 3048 3048 3048 3048 3048 3048 3048 3048 3048 3047 3047 3046 3045 3044 3043
3059 3058 3058 3057 3057 3056 3056 3055 3055 3054 3054 3053 3053 3052 3052 3051 3051 3050 3050 3049 3049 3049 3048 3048 3048 3047 3047 3046 3046 3046 3045 3045 3045 3045 3044 3044 3044 3043 3043 3042 3042 3041 3040 3040 3039 3038 3038 3037 3037 3037 3037 3037 3037 3037 3037 3037 3037 3037 3038 3038 3039 3040 3040 3041 3042 3043 3043 3044 3044 3045 3046 3046 3047 3047 3047 3047 3047 3047 3047 3047 3047 3047 3046 3045 3045 3044 3043
3057 3057 3056 3055 3055 3054 3054 3053 3053 3053 3052 3052 3051 3051 3050 3049 3049 3049 3048 3048 3047 3047 3046 3046 3046 3045 3045 3044 3044 3044 3043 3043 3044 3043 3043 3042 3042 3041 3041 3040 3040 3040 3039 3039 3038 3037 3037 3036 3036 3036 3036 3035 3035 3035 3036 3036 3036 3036 3036 3037 3037 3038 3039 3040 3040 3041 3042 3043 3043 3044 3045 3046 3046 3046 3047 3047 3047 3047 3047 3047 3046 3046 3045 3045 3044 3044 3043
3056 3055 3055 3054 3054 3053 3053 3052 3052 3051 3051 3050 3050 3049 3048 3048 3047 3047 3046 3046 3045 3045 3045 3044 3044 3043 3043 3043 3042 3042 3042 3041 3042 3041 3041 3040 3040 3040 3039 3039 3038 3038 3038 3038 3037 3037 3036 3036 3035 3035 3035 3035 3035 3035 3035 3035 3035 3035 3035 3036 3036 3037 3038 3039 3039 3040 3041 3042 3043 3043 3044 3045 3045 3045 3046 3046 3046 3046 3046 3046 3045 3045 3044 3044 3044 3043 3042
3055 3054 3054 3053 3053 3052 3052 3051 3050 3050 3049 3048 3048 3047 3046 3046 3045 3045 3044 3044 3044 3043 3043 3043 3042 3042 3041 3041 3041 3040 3040 3040 3040 3039 3039 3039 3038 3038 3037 3037 3037 3037 3037 3036 3036 3036 3035 3035 3035 3034 3034 3034 3034 3034 3034 3034 3034 3034 3035 3035 3036 3036 3037 3038 3039 3039 3040 3041 3042 3043 3043 3043 3044 3044 3045 3045 3045 3045 3045 3045 3044 3044 3044 3043 3043 3042 3042
3053 3053 3052 3052 3051 3051 3050 3050 3049 3048 3048 3047 3046 3045 3045 3044 3044 3043 3043 3042 3042 3042 3042 3041 3041 3040 3040 3040 3039 3039 3038 3038 3038 3037 3037 3037 3036 3036 3036 3036 3035 3035 3035 3035 3035 3035 3035 3034 3034 3034 3034 3034 3034 3034 3034 3034 3034 3034 3034 3035 3035 3036 3036 3037 3038 3039 3040 3040 3041 3042 3042 3042 3043 3043 3043 3043 3044 3044 3044 3044 3043 3043 3043 3042 3042 3042 3041
3052 3051 3051 3051 3050 3049 3049 3048 3047 3047 3046 3045 3044 3044 3043 3043 3042 3042 3041 3040 3040 3040 3040 3040 3039 3039 3038 3038 3038 3037 3037 3036 3036 3036 3035 3035 3035 3034 3034 3034 3034 3033 3034 3034 3034 3034 3034 3034 3033 3033 3033 3033 3033 3033 3033 3034 3034 3034 3034 3035 3035 3036 3036 3037 3037 3038 3039 3039 3040 3040 3041 3041 3041 3042 3042 3042 3042 3043 3043 3042 3042 3042 3042 3041 3041 3041 3040